FENGYUN 1C DEB

Satellite information

Favourite Embed

Satellite Type and Status

DEBRISIN ORBIT

Key statistics

Satellite FENGYUN 1C DEB at a glance.

Uptime

9665

Days in orbit

Revolutions

≈ 14.7

Per day

Orbit

SSO

Sun Synchronous Orbit

Inclination

99.1

Latest

Satellite identification and parameters

Extended collection of information and parameters for FENGYUN 1C DEB.

Object identification

Identified? True

Debris? True

Object name: FENGYUN 1C DEB

International designator: 1999-025AKT

Object number (NORAD): 30553

Object ID (CCSDS): 30553

Country: PEOPLES REPUBLIC OF CHINA (PRC)

Current information (Y/N): Y

RCS size: SMALL

Orbital parameters

Period: 97.991 minutes

Inclination: 99.1313 deg

SMA: 7040.71 km

Apoapsis: 677.293 km

Periapsis: 647.857 km

RAAN: 25.0246 deg

Eccentricy: 0.00209041

Argument of periapsis: 298.2062 deg

Mean anomaly: 61.7029 deg

Mean motion: 14.69528646 rev/day

Mean motion (dot): 0.00020193 rev/day2

B* drag term: 0.0033928628 1/REarth

Two-line elements (TLE)

Creation date: Oct. 23, 2025, 6:40 p.m.

Reference frame: TEME

Reference center: EARTH

Epoch: Oct. 23, 2025, 4:08 a.m. UTC

TLE line 0: 0 FENGYUN 1C DEB

TLE line 1: 1 30553U 99025AKT 25296.17276676 .00020193 00000-0 33929-2 0 9990

TLE line 2: 2 30553 99.1313 25.0246 0020904 298.2062 61.7029 14.69528646977309

Live tracking on map

Real-time ground track for satellite FENGYUN 1C DEB.

In-orbit conjunctions

A list of the most updated potential collisions computed for object FENGYUN 1C DEB.

Target Orbit TCA Probability of collision Miss distance Type
CZ-6A DEB LEO 2024-12-29 14:59:43 0.0002226271 393.0 (m) DEBRIS
DELTA 1 DEB SSO 2024-11-08 14:49:39 0.0001485991 169.0 (m) DEBRIS

Associated space launch

Chinese polar orbiting meteorological satellite

FENGYUN 1C DEB was lifted into orbit during the mission ‘Long March 4B | Feng Yun 1C’, on board a Long March 4B space rocket.

The launch took place on May 10, 1999, 1:33 a.m. from Launch Complex 7.

For more information about the launch, click the button.

Launch to space Long March 4B | Feng Yun 1C
Long March 4B | Feng Yun 1C

Agency: N/A

Status: Launch Successful

Launch date: May 10, 1999, 1:33 a.m. UTC

Rocket: Long March 4B

Launch pad: Launch Complex 7

Location: Taiyuan Satellite Launch Center, People's Republic of China

...

Latest news about this satellite

There are no fresh news available about this satellite. Check back as we update our databases every day.


Newsletter sign-up

Weekly statistics, charts and insights to help you stay on top of the space industry.